Location: *
(45.9500°N, 9.0833°E)
Time: 00:17:40
(UTC+00:00)

Tiros 1 despin weight - Pass Details

Date: 26 June 2021
Orbit: 593 x 642 km, 48.2° (Epoch: 02 August)

Event Time Altitude Azimuth Distance (km) Brightness Sun altitude
Rises 02:13:48 0° 215° (SW) 2,844 - -11.0°
Reaches altitude 10° 02:16:18 10° 204° (SSW) 1,936 - -10.7°
Exits shadow 02:16:57 13° 200° (SSW) 1,725 ? -10.7°
Maximum altitude 02:20:10 30° 144° (SE) 1,088 ? -10.3°
Drops below altitude 10° 02:24:00 10° 84° (E) 1,928 ? -9.9°
Sets 02:26:29 0° 73° (ENE) 2,829 ? -9.6°
